| time (UTC) | temp F | wind direction | speed knots | gust knots | rain 1hr in | rain 24hr in | rain mn in | humidity % | barometer mb |
| 20260506215129 | 78 | 177 | 1.7 | 5.2 | 0.00 | 0.00 | 0.00 | 38 | 1014.6 |
| 20260506213613 | 78 | 311 | 0.0 | 6.1 | 0.00 | 0.00 | 0.00 | 40 | 1014.6 |
| 20260506203622 | 78 | 63 | 2.6 | 9.6 | 0.00 | 0.00 | 0.00 | 31 | 1014.9 |
| 20260506202131 | 77 | 113 | 0.9 | 6.1 | 0.00 | 0.00 | 0.00 | 32 | 1015.0 |
| 20260506193632 | 75 | 52 | 2.6 | 5.2 | 0.00 | 0.00 | 0.00 | 33 | 1015.7 |
| 20260506192117 | 74 | 355 | 0.9 | 10.4 | 0.00 | 0.00 | 0.00 | 33 | 1015.7 |
| 20260506185126 | 74 | 327 | 1.7 | 4.3 | 0.00 | 0.00 | 0.00 | 36 | 1015.8 |
| 20260506183632 | 72 | 211 | 1.7 | 4.3 | 0.00 | 0.00 | 0.00 | 44 | 1015.2 |
| 20260506182123 | 71 | 195 | 1.7 | 7.0 | 0.00 | 0.00 | 0.00 | 41 | 1015.4 |
| 20260506173619 | 69 | 248 | 0.9 | 3.5 | 0.00 | 0.00 | 0.00 | 43 | 1015.3 |
| 20260506162113 | 61 | 250 | 0.0 | 2.6 | 0.00 | 0.00 | 0.00 | 58 | 1014.9 |
| 20260506153612 | 56 | 146 | 0.0 | 0.9 | 0.00 | 0.00 | 0.00 | 68 | 1015.6 |
| 20260506145130 | 53 | 113 | 0.0 | 1.7 | 0.00 | 0.00 | 0.00 | 74 | 1015.1 |
| 20260506143621 | 50 | 272 | 0.0 | 1.7 | 0.00 | 0.00 | 0.00 | 80 | 1015.3 |
| 20260506142128 | 48 | 239 | 0.0 | 1.7 | 0.00 | 0.00 | 0.00 | 83 | 1014.7 |
| 20260506135116 | 43 | 121 | 0.0 | 0.0 | 0.00 | 0.00 | 0.00 | 89 | 1014.2 |
| 20260506133622 | 42 | 121 | 0.0 | 0.0 | 0.00 | 0.00 | 0.00 | 88 | 1013.8 |
| 20260506125119 | 42 | 121 | 0.0 | 0.9 | 0.00 | 0.00 | 0.00 | 88 | 1014.1 |
| 20260506120626 | 43 | 308 | 0.0 | 0.9 | 0.00 | 0.00 | 0.00 | 88 | 1013.6 |
| 20260506113612 | 44 | 297 | 0.0 | 0.9 | 0.00 | 0.00 | 0.00 | 87 | 1013.2 |
| 20260506110631 | 45 | 320 | 0.9 | 4.3 | 0.00 | 0.00 | 0.00 | 87 | 1013.8 |
| 20260506103615 | 45 | 140 | 0.0 | 4.3 | 0.00 | 0.00 | 0.00 | 85 | 1013.6 |
| 20260506102125 | 45 | 244 | 0.9 | 5.2 | 0.00 | 0.00 | 0.00 | 85 | 1013.7 |
| 20260506092127 | 46 | 194 | 0.0 | 4.3 | 0.00 | 0.00 | 0.00 | 84 | 1013.9 |
| 20260506090614 | 46 | 158 | 3.5 | 6.1 | 0.00 | 0.00 | 0.00 | 85 | 1013.7 |
| 20260506083620 | 46 | 261 | 0.0 | 4.3 | 0.00 | 0.00 | 0.00 | 84 | 1013.8 |
| 20260506072114 | 46 | 256 | 0.9 | 4.3 | 0.00 | 0.00 | 0.00 | 84 | 1013.9 |
| 20260506062116 | 46 | 110 | 0.0 | 3.5 | 0.00 | 0.00 | 0.00 | 84 | 1013.4 |
| 20260506060625 | 47 | 207 | 0.9 | 5.2 | 0.00 | 0.00 | 0.00 | 82 | 1012.8 |
| 20260506042121 | 48 | 213 | 0.0 | 5.2 | 0.00 | 0.00 | 0.00 | 79 | 1012.6 |
| 20260506033630 | 50 | 264 | 0.9 | 6.1 | 0.00 | 0.00 | 0.00 | 72 | 1012.4 |
| 20260506032118 | 50 | 232 | 0.9 | 6.1 | 0.00 | 0.00 | 0.00 | 73 | 1011.8 |
| 20260506030628 | 51 | 292 | 1.7 | 10.4 | 0.00 | 0.00 | 0.00 | 72 | 1012.0 |
| 20260506025124 | 51 | 24 | 2.6 | 6.1 | 0.00 | 0.00 | 0.00 | 69 | 1011.5 |
| 20260506023628 | 52 | 309 | 3.5 | 10.4 | 0.00 | 0.00 | 0.00 | 67 | 1011.5 |
| 20260506022116 | 53 | 342 | 1.7 | 8.7 | 0.00 | 0.00 | 0.00 | 65 | 1011.8 |
| 20260506015119 | 55 | 288 | 1.7 | 10.4 | 0.00 | 0.00 | 0.00 | 65 | 1011.3 |
| 20260506012113 | 56 | 40 | 1.7 | 9.6 | 0.00 | 0.00 | 0.00 | 62 | 1011.1 |
| 20260506010623 | 57 | 342 | 2.6 | 11.3 | 0.00 | 0.00 | 0.00 | 62 | 1011.1 |
| 20260506005119 | 57 | 257 | 4.3 | 12.2 | 0.00 | 0.00 | 0.00 | 63 | 1011.1 |
| 20260506003624 | 56 | 250 | 3.5 | 10.4 | 0.00 | 0.00 | 0.00 | 62 | 1010.8 |
| 20260506000621 | 57 | 275 | 2.6 | 7.8 | 0.00 | 0.00 | 0.00 | 61 | 1010.5 |
| 20260505233629 | 58 | 319 | 0.9 | 12.2 | 0.00 | 0.00 | 0.00 | 59 | 1010.9 |
| 20260505230626 | 59 | 334 | 2.6 | 11.3 | 0.00 | 0.00 | 0.00 | 57 | 1011.0 |
| 20260505225127 | 60 | 295 | 3.5 | 10.4 | 0.00 | 0.00 | 0.00 | 56 | 1011.0 |
| 20260505223612 | 60 | 343 | 1.7 | 7.8 | 0.00 | 0.00 | 0.00 | 53 | 1011.0 |